KF6ILA Weather Reports


time (UTC)temp
F
wind
direction
speed
knots
gust
knots
rain 1hr
in
rain 24hr
in
rain mn
in
humidity
%
barometer
mb
20260506092045 40 272 9.6 15.6 0.00 0.35 0.10 98 1013.4
20260506091548 40 260 8.7 15.6 0.00 0.36 0.10 98 1013.5
20260506091051 40 271 7.0 16.5 0.00 0.37 0.10 98 1013.5
20260506090554 40 265 9.6 16.5 0.00 0.39 0.10 98 1013.5
20260506090154 40 264 7.8 16.5 0.00 0.40 0.10 98 1013.6
20260506090058 40 264 7.8 16.5 0.00 0.40 0.10 98 1013.6
20260506085600 40 259 10.4 17.4 0.00 0.42 0.10 98 1013.6
20260506085103 40 267 9.6 17.4 0.00 0.43 0.10 98 1013.6
20260506084109 40 259 10.4 16.5 0.00 0.45 0.10 98 1013.7
20260506083612 40 265 9.6 16.5 0.00 0.46 0.10 99 1013.9
20260506083115 40 273 8.7 18.2 0.00 0.47 0.10 98 1013.9
20260506082618 40 275 8.7 18.2 0.00 0.47 0.10 99 1013.9
20260506082121 39 271 8.7 15.6 0.00 0.47 0.10 98 1013.8
20260506081624 39 260 8.7 15.6 0.00 0.47 0.10 98 1013.9
20260506081127 39 239 9.6 15.6 0.00 0.48 0.10 98 1013.8
20260506080629 39 256 8.7 15.6 0.00 0.49 0.10 98 1014.0
20260506080133 39 249 11.3 15.6 0.00 0.49 0.10 98 1014.0
20260506073224 39 257 12.2 15.6 0.00 0.49 0.10 98 1014.1
20260506073150 39 257 12.2 15.6 0.00 0.49 0.10 98 1014.1
20260506072653 39 248 11.3 15.6 0.00 0.49 0.10 98 1014.0
20260506072157 39 255 10.4 15.6 0.00 0.49 0.10 98 1013.9
20260506071700 39 261 11.3 18.2 0.00 0.49 0.10 98 1014.2
20260506071203 39 255 10.4 18.2 0.00 0.49 0.10 98 1014.1
20260506070909 39 247 12.2 18.2 0.00 0.49 0.10 98 1014.0
20260506070706 39 247 12.2 18.2 0.00 0.49 0.10 98 1014.0
20260506070209 40 250 13.9 18.2 0.00 0.49 0.10 98 1014.0
20260506062233 40 258 10.4 19.1 0.00 0.49 0.10 98 1013.7
20260506061736 40 247 12.2 19.1 0.00 0.49 0.10 98 1013.6
20260506061239 40 261 13.9 18.2 0.00 0.49 0.10 97 1013.8
20260506060742 40 255 13.9 18.2 0.00 0.49 0.10 97 1013.8
20260506060245 40 257 13.0 18.2 0.00 0.49 0.10 97 1013.6
20260506051316 41 258 11.3 18.2 0.00 0.50 0.10 98 1013.5
20260506050321 41 259 9.6 16.5 0.00 0.50 0.10 98 1013.5
20260506044830 41 254 10.4 19.1 0.00 0.50 0.10 97 1013.4
20260506044333 41 256 12.2 19.1 0.00 0.50 0.10 97 1013.4
20260506043835 41 261 13.0 18.2 0.00 0.50 0.10 97 1013.3
20260506043339 41 258 14.8 18.2 0.00 0.50 0.10 97 1013.2
20260506042940 41 257 13.9 20.0 0.00 0.50 0.10 97 1013.1
20260506042842 41 257 13.9 20.0 0.00 0.50 0.10 97 1013.1
20260506042345 41 257 13.9 20.0 0.00 0.50 0.10 97 1013.0
20260506041848 41 256 13.0 19.1 0.00 0.50 0.10 97 1013.0
20260506041351 41 256 13.9 19.1 0.00 0.50 0.10 97 1012.9
20260506040854 41 262 12.2 20.0 0.00 0.50 0.10 97 1012.8
20260506035933 41 261 13.9 19.1 0.00 0.50 0.10 97 1012.6
20260506035900 41 261 13.9 19.1 0.00 0.50 0.10 97 1012.6
20260506035403 41 258 13.9 19.1 0.00 0.50 0.10 97 1012.6
20260506034956 41 255 13.0 19.1 0.00 0.50 0.10 97 1012.6
20260506034906 41 255 13.0 19.1 0.00 0.50 0.10 97 1012.6
20260506034409 41 256 13.9 19.1 0.00 0.50 0.10 97 1012.4
20260506033946 41 257 14.8 19.1 0.00 0.50 0.10 97 1012.3
20260506033912 41 257 14.8 19.1 0.00 0.50 0.10 97 1012.3
20260506033456 41 257 11.3 18.2 0.00 0.50 0.10 97 1012.4
20260506033416 41 257 11.3 18.2 0.00 0.50 0.10 97 1012.4
20260506032917 42 250 12.2 20.0 0.00 0.50 0.10 97 1012.3
20260506032421 42 259 12.2 20.0 0.00 0.50 0.10 96 1012.2
20260506031427 42 269 13.0 18.2 0.00 0.50 0.10 96 1012.1
20260506030930 42 270 11.3 18.2 0.00 0.50 0.10 96 1012.2
20260506025936 42 260 12.2 19.1 0.00 0.50 0.10 95 1012.1
20260506025439 42 256 11.3 19.1 0.00 0.50 0.10 95 1011.9
20260506024942 42 260 10.4 17.4 0.00 0.50 0.10 95 1011.9
20260506023948 42 267 9.6 18.2 0.00 0.50 0.10 94 1011.9
20260506023451 42 257 11.3 20.9 0.00 0.50 0.10 94 1011.8
20260506022955 42 258 13.9 20.9 0.00 0.50 0.10 93 1011.7
20260506022456 42 251 15.6 20.9 0.00 0.50 0.10 93 1011.6
20260506022000 42 252 13.9 20.9 0.00 0.50 0.10 93 1011.6
20260506021006 42 251 13.9 19.1 0.00 0.50 0.10 92 1011.5
20260506020509 43 266 11.3 14.8 0.00 0.50 0.10 91 1011.5
20260506020012 43 264 8.7 20.0 0.00 0.50 0.10 90 1011.4
20260506015514 43 266 11.3 20.0 0.00 0.50 0.10 90 1011.3
20260506015019 43 268 11.3 20.0 0.00 0.50 0.10 89 1011.1
20260506014521 43 270 12.2 18.2 0.00 0.50 0.10 88 1011.1
20260506014256 44 260 11.3 19.1 0.00 0.50 0.10 87 1010.9
20260506014024 44 260 11.3 19.1 0.00 0.50 0.10 87 1010.9
20260506013527 44 266 13.0 20.9 0.00 0.50 0.10 86 1011.0
20260506013219 45 271 13.0 20.9 0.00 0.50 0.10 85 1011.1
20260506013030 45 271 13.0 20.9 0.00 0.50 0.10 85 1011.1
20260506012719 45 277 11.3 16.5 0.00 0.50 0.10 84 1011.2
20260506012533 45 277 11.3 16.5 0.00 0.50 0.10 84 1011.2
20260506012146 45 256 10.4 20.9 0.00 0.50 0.10 84 1011.1
20260506012036 45 256 10.4 20.9 0.00 0.50 0.10 84 1011.1
20260506011539 45 251 12.2 20.9 0.00 0.50 0.10 83 1011.1
20260506011042 46 250 9.6 18.2 0.00 0.50 0.10 82 1011.0
20260506005054 47 267 8.7 20.0 0.00 0.50 0.10 81 1011.0
20260506004100 47 262 7.8 21.7 0.00 0.50 0.10 81 1011.0
20260506003603 47 275 10.4 21.7 0.00 0.50 0.10 81 1010.6
20260506003106 48 270 14.8 20.0 0.00 0.50 0.10 80 1010.6
20260506002740 47 267 9.6 21.7 0.00 0.50 0.10 81 1010.6
20260506002609 47 267 9.6 21.7 0.00 0.50 0.10 81 1010.6
20260506002112 47 288 11.3 21.7 0.00 0.50 0.10 81 1010.5
20260506001615 46 276 10.4 17.4 0.00 0.50 0.10 83 1010.4
20260506001118 46 261 11.3 20.9 0.00 0.50 0.10 83 1010.5
20260506000701 46 266 9.6 25.2 0.00 0.50 0.10 82 1010.4
20260506000622 46 266 9.6 25.2 0.00 0.50 0.10 82 1010.4
20260506000124 47 271 12.2 25.2 0.00 0.50 0.10 79 1010.3
20260505235627 48 255 16.5 24.3 0.00 0.50 0.10 79 1010.5
20260505235129 46 267 13.9 20.0 0.00 0.50 0.10 84 1010.1
20260505234633 46 274 10.4 23.5 0.00 0.50 0.10 83 1010.0
20260505234136 46 279 14.8 24.3 0.00 0.50 0.10 79 1010.0
20260505233639 47 275 13.9 24.3 0.00 0.50 0.10 81 1010.1
20260505233142 46 249 15.6 25.2 0.00 0.50 0.10 79 1010.0
20260505231651 46 254 13.0 26.9 0.00 0.50 0.10 82 1010.2
20260505231154 46 258 16.5 27.8 0.00 0.50 0.10 81 1010.2
20260505230657 46 252 15.6 27.8 0.00 0.50 0.10 81 1009.9
20260505225703 47 289 18.2 25.2 0.00 0.50 0.10 80 1009.8
20260505225206 47 263 9.6 23.5 0.00 0.50 0.10 81 1010.1
20260505224709 48 275 10.4 26.1 0.00 0.50 0.10 80 1010.2
20260505223715 48 257 10.4 26.1 0.00 0.50 0.10 82 1010.3
20260505223218 47 260 16.5 26.1 0.00 0.50 0.10 80 1010.3
20260505222721 48 271 13.0 24.3 0.00 0.50 0.10 81 1010.5
20260505222224 49 255 17.4 25.2 0.00 0.50 0.10 81 1010.4
20260505220733 48 265 17.4 26.1 0.00 0.50 0.10 81 1011.3
20260505220236 49 251 17.4 25.2 0.00 0.50 0.10 82 1011.3
20260505215739 48 263 13.0 24.3 0.00 0.50 0.10 85 1011.3
20260505215242 47 260 19.1 24.3 0.00 0.50 0.10 85 1011.4
20260505214745 48 282 9.6 22.6 0.00 0.50 0.10 88 1011.3
20260505214248 47 266 16.5 26.1 0.00 0.50 0.10 90 1011.4
20260505213752 46 257 13.9 26.1 0.00 0.50 0.10 91 1011.6
20260505213254 46 269 12.2 20.9 0.00 0.50 0.10 92 1011.5
20260505212833 45 261 13.0 21.7 0.00 0.50 0.10 93 1011.7
20260505212757 45 261 13.0 21.7 0.00 0.50 0.10 93 1011.7
20260505212300 45 261 15.6 21.7 0.00 0.50 0.10 93 1011.6
20260505211803 45 267 12.2 22.6 0.00 0.50 0.10 93 1011.7
20260505211346 45 259 12.2 23.5 0.00 0.50 0.10 93 1011.8
20260505211306 45 259 12.2 23.5 0.00 0.50 0.10 93 1011.8
20260505210809 46 261 15.6 24.3 0.00 0.50 0.10 92 1011.8
20260505210312 46 268 14.8 26.1 0.00 0.50 0.10 93 1011.7
20260505205850 45 260 17.4 26.1 0.00 0.50 0.10 93 1011.9
20260505205816 45 260 17.4 26.1 0.00 0.50 0.10 93 1011.9
20260505205318 45 253 13.9 24.3 0.00 0.50 0.10 93 1012.0
20260505204324 45 254 12.2 22.6 0.00 0.50 0.10 94 1011.7
20260505203330 46 262 13.0 26.1 0.00 0.50 0.10 97 1011.6
20260505202833 46 252 17.4 26.1 0.00 0.50 0.10 97 1011.6
20260505201839 45 254 16.5 26.1 0.00 0.50 0.10 99 1011.9
20260505201342 45 267 17.4 24.3 0.00 0.50 0.10 100 1011.8
20260505200845 44 265 14.8 25.2 0.00 0.50 0.10 100 1011.7
20260505200348 44 267 16.5 25.2 0.00 0.50 0.10 100 1011.6
20260505195851 44 243 14.8 23.5 0.00 0.50 0.10 100 1012.0
20260505195354 44 272 11.3 21.7 0.00 0.50 0.10 100 1011.8
20260505194857 43 261 13.0 26.1 0.00 0.50 0.10 100 1011.8
20260505194400 43 269 17.4 26.1 0.01 0.50 0.10 100 1011.9
20260505193903 43 262 17.4 23.5 0.01 0.50 0.10 100 1011.8
20260505193406 43 256 14.8 27.8 0.01 0.50 0.10 100 1011.9
20260505192909 43 256 17.4 27.8 0.01 0.50 0.10 100 1012.0
20260505192412 43 263 17.4 26.1 0.01 0.50 0.10 100 1011.9
20260505191915 42 255 19.1 26.1 0.01 0.50 0.10 100 1012.1
20260505191418 42 258 18.2 26.1 0.01 0.50 0.10 100 1011.9
20260505190921 42 253 18.2 26.1 0.01 0.50 0.10 100 1011.8
20260505190425 42 254 16.5 26.1 0.02 0.50 0.10 100 1011.9
20260505185927 42 257 13.9 24.3 0.02 0.50 0.10 100 1011.8
20260505185431 42 253 12.2 24.3 0.02 0.50 0.10 100 1011.9
20260505184933 42 258 14.8 24.3 0.02 0.50 0.10 100 1011.8
20260505184436 42 264 11.3 20.9 0.02 0.50 0.10 100 1011.8
20260505183939 42 259 10.4 20.9 0.02 0.49 0.09 100 1011.8
20260505183442 42 268 11.3 20.9 0.02 0.49 0.09 100 1011.8
20260505182945 42 268 11.3 20.9 0.02 0.49 0.09 100 1011.8
20260505182448 42 251 14.8 20.9 0.03 0.49 0.09 100 1011.6
20260505181951 42 256 13.9 22.6 0.03 0.49 0.09 100 1011.7
20260505181455 41 259 13.9 22.6 0.03 0.49 0.09 100 1011.6
20260505180957 42 259 13.0 22.6 0.03 0.49 0.09 100 1011.6
20260505180500 41 276 13.0 24.3 0.03 0.48 0.08 100 1011.6
20260505180003 41 266 14.8 24.3 0.03 0.48 0.08 100 1011.3
20260505175506 41 269 13.9 23.5 0.04 0.48 0.08 100 1011.4
20260505175009 41 278 13.9 23.5 0.04 0.48 0.08 100 1011.4
20260505174512 42 276 14.8 22.6 0.04 0.48 0.08 100 1011.3
20260505174015 42 269 14.8 22.6 0.03 0.47 0.07 100 1011.0
20260505173519 42 274 10.4 24.3 0.03 0.47 0.07 100 1010.9
20260505173021 42 259 17.4 24.3 0.04 0.47 0.07 100 1010.7
20260505172524 42 257 14.8 29.5 0.04 0.47 0.07 100 1010.6
20260505172027 42 273 17.4 29.5 0.03 0.46 0.06 100 1010.6
20260505171530 42 257 20.9 29.5 0.03 0.46 0.06 100 1010.7
20260505171033 42 265 13.9 23.5 0.03 0.46 0.06 100 1010.7
20260505170536 43 272 14.8 21.7 0.03 0.45 0.05 100 1010.7
20260505170039 43 270 13.9 21.7 0.03 0.45 0.05 100 1010.6
20260505165542 43 258 13.0 21.7 0.02 0.44 0.04 100 1010.6
20260505165045 43 255 13.9 23.5 0.02 0.44 0.04 100 1010.3
20260505164549 42 269 11.3 23.5 0.02 0.44 0.04 100 1010.4
20260505164051 42 267 11.3 19.1 0.03 0.44 0.04 100 1010.5
20260505163554 42 270 11.3 20.0 0.03 0.44 0.04 100 1010.4
20260505163149 42 269 11.3 20.9 0.03 0.43 0.03 100 1010.4
20260505163057 42 269 11.3 20.9 0.03 0.43 0.03 100 1010.4
20260505162636 42 274 13.9 20.9 0.03 0.43 0.03 100 1010.3
20260505162600 42 274 13.9 20.9 0.03 0.43 0.03 100 1010.3
20260505162103 42 271 12.2 19.1 0.03 0.43 0.03 100 1010.2
20260505161606 42 285 10.4 20.9 0.03 0.43 0.03 100 1010.2
20260505161109 42 284 13.9 26.1 0.03 0.43 0.03 100 1010.2
20260505160612 42 284 13.9 26.1 0.02 0.42 0.02 100 1010.2
20260505160115 42 293 18.2 26.1 0.02 0.42 0.02 100 1010.2
20260505153133 41 269 18.2 26.1 0.00 0.40 0.00 100 1009.9
20260505152636 41 270 18.2 26.9 0.00 0.40 0.00 100 1009.9
20260505152139 41 272 18.2 26.9 0.00 0.40 0.00 100 1009.8
20260505151642 41 262 18.2 27.8 0.00 0.40 0.00 100 1009.7
20260505151145 41 272 15.6 27.8 0.01 0.40 0.00 100 1009.8
20260505150648 41 263 19.1 27.8 0.01 0.40 0.00 100 1009.8
20260505150151 41 275 13.9 28.7 0.01 0.40 0.00 100 1009.7
20260505140227 42 249 15.6 23.5 0.07 0.39 0.39 100 1009.6
20260505130303 42 267 10.4 17.4 0.05 0.32 0.32 100 1009.4
20260505124812 42 282 9.6 21.7 0.04 0.30 0.30 100 1009.3
20260505124316 42 290 13.9 21.7 0.04 0.30 0.30 100 1009.3
20260505123818 42 286 8.7 18.2 0.03 0.29 0.29 100 1009.3
20260505123322 42 256 10.4 18.2 0.03 0.29 0.29 100 1009.3
20260505122824 42 261 13.0 18.2 0.01 0.27 0.27 100 1009.1
20260505122327 42 271 9.6 15.6 0.01 0.27 0.27 100 1008.9
20260505121830 42 264 7.8 15.6 0.01 0.27 0.27 100 1009.0
20260505121333 43 274 7.8 20.9 0.02 0.27 0.27 100 1009.1
20260505120836 43 255 7.8 21.7 0.02 0.27 0.27 100 1009.0
20260505115842 43 255 10.4 18.2 0.02 0.27 0.27 100 1009.2
20260505115345 43 247 10.4 20.9 0.01 0.26 0.26 100 1009.1
20260505114848 43 256 11.3 24.3 0.01 0.26 0.26 100 1009.1
20260505114351 43 268 13.9 26.1 0.02 0.26 0.26 100 1009.1
20260505113855 43 268 17.4 26.1 0.02 0.27 0.26 100 1009.1
20260505113357 43 266 13.9 22.6 0.03 0.27 0.26 100 1009.2
20260505112901 43 266 13.0 24.3 0.03 0.27 0.26 100 1009.3
20260505111907 43 267 13.9 22.6 0.04 0.27 0.26 100 1009.3
20260505111409 43 278 13.9 22.6 0.04 0.26 0.25 100 1009.4
20260505110913 43 272 13.9 27.8 0.04 0.26 0.25 100 1009.4
20260505110415 43 275 16.5 27.8 0.05 0.26 0.25 100 1009.3
20260505101943 42 282 10.4 17.4 0.08 0.23 0.22 100 1009.4
20260505101446 42 278 10.4 17.4 0.08 0.22 0.21 100 1009.3
20260505100949 42 282 8.7 14.8 0.09 0.22 0.21 99 1009.4
20260505095955 42 281 8.7 19.1 0.10 0.20 0.19 100 1009.5
20260505095457 42 270 9.6 19.1 0.12 0.20 0.19 100 1009.6
20260505095001 42 258 13.0 19.1 0.12 0.19 0.18 100 1009.5
20260505094504 42 266 12.2 19.1 0.13 0.19 0.18 100 1009.6
20260505094007 42 263 10.4 17.4 0.13 0.18 0.17 100 1009.6
20260505093510 42 255 7.8 13.9 0.14 0.18 0.17 100 1009.6
20260505093013 42 261 7.0 20.0 0.13 0.17 0.16 100 1009.8
20260505092516 42 254 6.1 20.0 0.12 0.16 0.15 100 1009.7